Location: Newark
(48.1500°N, 13.1167°E)
Time: 17:53:41
(UTC+00:00)

XW-2D - Pass Details

Date: 11 December 2021
Orbit: 502 x 522 km, 97.5° (Epoch: 17 January)

Event Time Altitude Azimuth Distance (km) Brightness Sun altitude
Rises 03:58:25 0° 32° (NNE) 2,666 ? -27.1°
Reaches altitude 10° 04:01:39 10° 62° (ENE) 1,768 ? -26.6°
Maximum altitude 04:03:22 13° 89° (E) 1,599 ? -26.3°
Drops below altitude 10° 04:05:05 10° 116° (ESE) 1,758 ? -26.0°
Sets 04:08:16 0° 146° (SE) 2,635 ? -25.5°
